sat.trackr.live / text

‹ back to catalog

STARLINK-30104

NORAD 56300 · 2023-056Q

PAYLOAD ACTIVE UNKNOWN

§ Identity

Operator
Country
US
Launch date
2023-04-19
Launch site
AFETR
Launch vehicle
Mass (kg)
RCS (m²)

Purposes: comms

External: N2YO · Heavens-Above · Gunter

§ Orbital elements

Epoch: 2026-05-25T00:45:53.819424Z

Period
94.27 min
Inclination
43.0039°
Eccentricity
0.0001367
Mean motion
15.27574552 rev/d
Perigee alt
482.1 km
Apogee alt
484.0 km
Semi-major
6,861.2 km
B*
4.1468e-5
RAAN
137.9386°
Arg perigee
277.1020°
Mean anomaly
82.9676°
Rev number
17,177

§ Raw data

STARLINK-301041 56300U 23056Q   26145.03187291  .00000879  00000+0  41468-4 0  99992 56300  43.0039 137.9386 0001367 277.1020  82.9676 15.27574552171772

JSON: /api/v1/satellites/56300 · /tle

For live sub-satellite position, see the globe view (requires WebGL).

§ Visibility from observer

Set your observer location to see the next 7 days of passes ≥ 10°. The values pass through the URL so the page stays shareable.

No JS? Fill the form by hand. The geolocation button needs JavaScript.